sat.trackr.live / text

‹ back to catalog

STARLINK-32323

NORAD 61677 · 2024-193S

PAYLOAD ACTIVE UNKNOWN

§ Identity

Operator
Country
US
Launch date
2024-10-26
Launch site
AFETR
Launch vehicle
Mass (kg)
RCS (m²)

Purposes: comms

External: N2YO · Heavens-Above · Gunter

§ Orbital elements

Epoch: 2026-09-21T16:54:41.727168Z

Period
93.85 min
Inclination
53.1598°
Eccentricity
0.0001235
Mean motion
15.34389548 rev/d
Perigee alt
461.9 km
Apogee alt
463.6 km
Semi-major
6,840.9 km
B*
1.0400e-5
RAAN
255.8385°
Arg perigee
86.6080°
Mean anomaly
273.5064°
Rev number
10,660

§ Raw data

STARLINK-323231 61677U 24193S   26264.70464962 -.00000025  00000+0  10400-4 0  99902 61677  53.1598 255.8385 0001235  86.6080 273.5064 15.34389548106605

JSON: /api/v1/satellites/61677 · /tle

For live sub-satellite position, see the globe view (requires WebGL).

§ Visibility from observer

Set your observer location to see the next 7 days of passes ≥ 10°. The values pass through the URL so the page stays shareable.

No JS? Fill the form by hand. The geolocation button needs JavaScript.